When you browse on this site, cookies collect data to enhance your experience and personalize the content and advertising you see.
Visit our Privacy Policy to learn more. By continuing to use the site, you agree to this use of cookies and data.
  • En España
  • Lista de países
  • Para 7 días
  • Temperatura del agua
  • El tiempo en el mapa
  • Informadores
  • user-avatar
    Iniciar sesión

    Tiempo cada hora Kampot

    Hoy, 13 Noviembre, Miércoles

    Tiempo Temperatura Precipitaciones Viento Presión Humedad
    00:00 +24°C° 0 mm 0 mps 758 mmHg 85%
    01:00 +24°C° 0 mm 0 mps 758 mmHg 86%
    02:00 +26°C° 0 mm 1 mps 758 mmHg 86%
    03:00 +25°C° 0 mm 1 mps 757 mmHg 87%
    04:00 +25°C° 0 mm 2 mps 757 mmHg 88%
    05:00 +26°C° 0 mm 2 mps 758 mmHg 88%
    06:00 +26°C° 0 mm 2 mps 758 mmHg 88%
    07:00 +26°C° 0 mm 2 mps 758 mmHg 88%
    08:00 +28°C° 0 mm 2 mps 759 mmHg 81%
    09:00 +29°C° 0 mm 2 mps 759 mmHg 75%
    10:00 +31°C° 0 mm 2 mps 759 mmHg 69%
    11:00 +31°C° 0 mm 2 mps 759 mmHg 66%
    12:00 +32°C° 0 mm 2 mps 758 mmHg 64%
    13:00 +34°C° 0 mm 2 mps 757 mmHg 61%
    14:00 +32°C° 0 mm 2 mps 757 mmHg 62%
    15:00 +32°C° 0 mm 2 mps 756 mmHg 63%
    16:00 +32°C° 0 mm 2 mps 756 mmHg 64%
    17:00 +31°C° 0 mm 2 mps 756 mmHg 69%
    18:00 +29°C° 0 mm 1 mps 757 mmHg 73%
    19:00 +28°C° 0 mm 1 mps 757 mmHg 78%
    20:00 +28°C° 0 mm 1 mps 758 mmHg 80%
    21:00 +28°C° 0 mm 2 mps 758 mmHg 82%
    22:00 +27°C° 0 mm 2 mps 759 mmHg 84%
    23:00 +27°C° 0.2 mm 3 mps 759 mmHg 86%

    Mañana, 14 Noviembre, Jueves

    Tiempo Temperatura Precipitaciones Viento Presión Humedad
    00:00 +27°C° 0.2 mm 3 mps 758 mmHg 88%
    01:00 +27°C° 0.2 mm 3 mps 758 mmHg 90%
    02:00 +26°C° 0.3 mm 4 mps 758 mmHg 90%
    03:00 +26°C° 0.3 mm 4 mps 757 mmHg 90%
    04:00 +26°C° 0.3 mm 4 mps 757 mmHg 90%
    05:00 +26°C° 0.1 mm 4 mps 758 mmHg 90%
    06:00 +26°C° 0.1 mm 4 mps 758 mmHg 90%
    07:00 +27°C° 0.1 mm 3 mps 758 mmHg 90%
    08:00 +28°C° 0 mm 4 mps 759 mmHg 85%
    09:00 +29°C° 0 mm 4 mps 759 mmHg 80%
    10:00 +30°C° 0 mm 4 mps 759 mmHg 75%
    11:00 +32°C° 0 mm 4 mps 758 mmHg 68%
    12:00 +33°C° 0 mm 5 mps 758 mmHg 60%
    13:00 +34°C° 0 mm 5 mps 757 mmHg 53%
    14:00 +33°C° 0 mm 6 mps 756 mmHg 56%
    15:00 +33°C° 0 mm 6 mps 756 mmHg 60%
    16:00 +32°C° 0 mm 6 mps 755 mmHg 63%
    17:00 +30°C° 0 mm 6 mps 756 mmHg 66%
    18:00 +29°C° 0 mm 6 mps 756 mmHg 70%
    19:00 +28°C° 0 mm 7 mps 757 mmHg 73%
    20:00 +27°C° 0 mm 6 mps 757 mmHg 73%
    21:00 +27°C° 0 mm 6 mps 758 mmHg 72%
    22:00 +27°C° 0 mm 6 mps 758 mmHg 72%
    23:00 +26°C° 0 mm 6 mps 758 mmHg 73%

    Pasado mañana, 15 Noviembre, Viernes

    Tiempo Temperatura Precipitaciones Viento Presión Humedad
    00:00 +26°C° 0 mm 5 mps 758 mmHg 74%
    01:00 +25°C° 0 mm 5 mps 758 mmHg 76%
    02:00 +25°C° 0 mm 5 mps 757 mmHg 77%
    03:00 +23°C° 0 mm 6 mps 757 mmHg 78%
    04:00 +23°C° 0 mm 7 mps 756 mmHg 79%
    05:00 +23°C° 0 mm 6 mps 757 mmHg 80%
    06:00 +23°C° 0 mm 6 mps 757 mmHg 81%
    07:00 +23°C° 0 mm 6 mps 758 mmHg 83%
    08:00 +24°C° 0 mm 6 mps 758 mmHg 78%
    09:00 +27°C° 0 mm 6 mps 758 mmHg 73%
    10:00 +29°C° 0 mm 5 mps 759 mmHg 68%
    11:00 +29°C° 0 mm 5 mps 758 mmHg 66%
    12:00 +30°C° 0 mm 4 mps 757 mmHg 63%
    13:00 +31°C° 0 mm 3 mps 757 mmHg 60%
    14:00 +31°C° 0 mm 3 mps 756 mmHg 61%
    15:00 +31°C° 0 mm 3 mps 756 mmHg 62%
    16:00 +31°C° 0 mm 2 mps 755 mmHg 63%
    17:00 +29°C° 0 mm 3 mps 756 mmHg 71%
    18:00 +28°C° 0 mm 4 mps 756 mmHg 75%
    19:00 +27°C° 0 mm 4 mps 757 mmHg 79%
    20:00 +27°C° 0 mm 4 mps 757 mmHg 79%
    21:00 +26°C° 0 mm 4 mps 757 mmHg 80%
    22:00 +26°C° 0 mm 4 mps 758 mmHg 81%
    23:00 +26°C° 0 mm 4 mps 757 mmHg 82%

    16 Noviembre, Sábado

    Tiempo Temperatura Precipitaciones Viento Presión Humedad
    00:00 +25°C° 0 mm 3 mps 757 mmHg 83%
    01:00 +25°C° 0 mm 3 mps 757 mmHg 84%
    02:00 +25°C° 0 mm 3 mps 756 mmHg 84%
    03:00 +25°C° 0 mm 3 mps 756 mmHg 84%
    04:00 +25°C° 0 mm 3 mps 756 mmHg 85%
    05:00 +25°C° 0 mm 3 mps 756 mmHg 84%
    06:00 +25°C° 0 mm 3 mps 757 mmHg 83%
    07:00 +25°C° 0 mm 3 mps 758 mmHg 83%
    08:00 +27°C° 0 mm 3 mps 758 mmHg 78%
    09:00 +28°C° 0 mm 3 mps 758 mmHg 72%
    10:00 +30°C° 0 mm 4 mps 758 mmHg 67%
    11:00 +31°C° 0 mm 3 mps 757 mmHg 64%
    12:00 +33°C° 0 mm 3 mps 757 mmHg 60%
    13:00 +33°C° 0 mm 3 mps 756 mmHg 57%
    14:00 +32°C° 0 mm 2 mps 756 mmHg 57%
    15:00 +32°C° 0 mm 2 mps 756 mmHg 58%
    16:00 +32°C° 0 mm 2 mps 755 mmHg 58%
    17:00 +31°C° 0 mm 2 mps 756 mmHg 63%
    18:00 +30°C° 0 mm 2 mps 756 mmHg 67%
    19:00 +28°C° 0 mm 2 mps 757 mmHg 71%
    20:00 +28°C° 0 mm 2 mps 757 mmHg 73%
    21:00 +27°C° 0 mm 2 mps 757 mmHg 75%
    22:00 +27°C° 0 mm 2 mps 758 mmHg 77%
    23:00 +26°C° 0 mm 2 mps 758 mmHg 77%

    17 Noviembre, Domingo

    Tiempo Temperatura Precipitaciones Viento Presión Humedad
    00:00 +26°C° 0 mm 2 mps 757 mmHg 78%
    01:00 +26°C° 0 mm 2 mps 757 mmHg 79%
    02:00 +26°C° 0 mm 2 mps 757 mmHg 80%
    03:00 +25°C° 0 mm 2 mps 757 mmHg 80%
    04:00 +25°C° 0 mm 2 mps 757 mmHg 81%
    05:00 +26°C° 0.1 mm 2 mps 757 mmHg 80%
    06:00 +26°C° 0.1 mm 2 mps 758 mmHg 80%
    07:00 +26°C° 0.1 mm 2 mps 758 mmHg 80%
    08:00 +28°C° 0.1 mm 2 mps 758 mmHg 75%
    09:00 +29°C° 0.1 mm 3 mps 758 mmHg 71%
    10:00 +31°C° 0.1 mm 3 mps 759 mmHg 66%
    11:00 +31°C° 0.1 mm 2 mps 758 mmHg 64%
    12:00 +32°C° 0.1 mm 2 mps 757 mmHg 61%
    13:00 +34°C° 0.1 mm 2 mps 757 mmHg 58%
    14:00 +34°C° 0 mm 2 mps 756 mmHg 60%
    15:00 +32°C° 0 mm 2 mps 756 mmHg 61%
    16:00 +32°C° 0 mm 2 mps 755 mmHg 62%
    17:00 +31°C° 0 mm 1 mps 756 mmHg 68%
    18:00 +29°C° 0 mm 1 mps 756 mmHg 74%
    19:00 +26°C° 0 mm 0 mps 757 mmHg 80%
    20:00 +28°C° 0 mm 1 mps 757 mmHg 80%
    21:00 +28°C° 0 mm 1 mps 758 mmHg 80%
    22:00 +28°C° 0 mm 1 mps 758 mmHg 80%
    23:00 +27°C° 0 mm 1 mps 758 mmHg 81%

    18 Noviembre, Lunes

    Tiempo Temperatura Precipitaciones Viento Presión Humedad
    00:00 +27°C° 0 mm 1 mps 758 mmHg 82%
    01:00 +27°C° 0 mm 1 mps 757 mmHg 83%
    02:00 +27°C° 0 mm 1 mps 757 mmHg 85%
    03:00 +26°C° 0 mm 1 mps 757 mmHg 87%
    04:00 +26°C° 0 mm 1 mps 757 mmHg 90%
    05:00 +26°C° 0.3 mm 1 mps 757 mmHg 89%
    06:00 +27°C° 0.3 mm 2 mps 758 mmHg 88%
    07:00 +27°C° 0.3 mm 2 mps 758 mmHg 88%
    08:00 +28°C° 0.3 mm 2 mps 758 mmHg 81%
    09:00 +30°C° 0.3 mm 2 mps 758 mmHg 75%
    10:00 +31°C° 0.3 mm 2 mps 759 mmHg 68%
    11:00 +32°C° 0 mm 2 mps 758 mmHg 65%
    12:00 +34°C° 0 mm 2 mps 757 mmHg 61%
    13:00 +34°C° 0 mm 2 mps 756 mmHg 57%
    14:00 +34°C° 0.1 mm 2 mps 756 mmHg 59%
    15:00 +34°C° 0.1 mm 2 mps 755 mmHg 61%
    16:00 +34°C° 0.1 mm 2 mps 755 mmHg 62%
    17:00 +32°C° 0.1 mm 1 mps 756 mmHg 65%
    18:00 +31°C° 0.1 mm 1 mps 756 mmHg 68%
    19:00 +29°C° 0.1 mm 1 mps 757 mmHg 70%
    20:00 +29°C° 0.3 mm 1 mps 757 mmHg 72%
    21:00 +29°C° 0.3 mm 2 mps 757 mmHg 74%
    22:00 +28°C° 0.3 mm 2 mps 758 mmHg 76%
    23:00 +28°C° 0.8 mm 2 mps 758 mmHg 81%
    Mostrar más